FENGYUN 1C DEB

Satellite information

Favourite Embed

Satellite Type and Status

DEBRISIN ORBIT

Key statistics

Satellite FENGYUN 1C DEB at a glance.

Uptime

9557

Days in orbit

Revolutions

≈ 14.0

Per day

Orbit

SSO

Sun Synchronous Orbit

Inclination

99.4

Latest

Satellite identification and parameters

Extended collection of information and parameters for FENGYUN 1C DEB.

Object identification

Identified? True

Debris? True

Object name: FENGYUN 1C DEB

International designator: 1999-025DBR

Object number (NORAD): 32453

Object ID (CCSDS): 32453

Country: PEOPLES REPUBLIC OF CHINA (PRC)

Current information (Y/N): Y

RCS size: SMALL

Orbital parameters

Period: 102.729 minutes

Inclination: 99.3779 deg

SMA: 7265.895 km

Apoapsis: 959.164 km

Periapsis: 816.356 km

RAAN: 81.4534 deg

Eccentricy: 0.0098273

Argument of periapsis: 313.0297 deg

Mean anomaly: 46.2666 deg

Mean motion: 14.01745171 rev/day

Mean motion (dot): 0.00000935 rev/day2

B* drag term: 0.00062054 1/REarth

Two-line elements (TLE)

Creation date: June 25, 2025, 6:19 p.m.

Reference frame: TEME

Reference center: EARTH

Epoch: June 25, 2025, 10:37 a.m. UTC

TLE line 0: 0 FENGYUN 1C DEB

TLE line 1: 1 32453U 99025DBR 25176.44288664 .00000935 00000-0 62054-3 0 9992

TLE line 2: 2 32453 99.3779 81.4534 0098273 313.0297 46.2666 14.01745171910429

Live tracking on map

Real-time ground track for satellite FENGYUN 1C DEB.

In-orbit conjunctions

A list of the most updated potential collisions computed for object FENGYUN 1C DEB.

Target Orbit TCA Probability of collision Miss distance Type
COSMOS 952 LEO 2025-01-06 03:52:51 0.001003907 143.0 (m) PAYLOAD

Associated space launch

Chinese polar orbiting meteorological satellite

FENGYUN 1C DEB was lifted into orbit during the mission ‘Long March 4B | Feng Yun 1C’, on board a Long March 4B space rocket.

The launch took place on May 10, 1999, 1:33 a.m. from Launch Complex 7.

For more information about the launch, click the button.

Launch to space Long March 4B | Feng Yun 1C
Long March 4B | Feng Yun 1C

Agency: N/A

Status: Launch Successful

Launch date: May 10, 1999, 1:33 a.m. UTC

Rocket: Long March 4B

Launch pad: Launch Complex 7

Location: Taiyuan Satellite Launch Center, People's Republic of China

...

Latest news about this satellite

There are no fresh news available about this satellite. Check back as we update our databases every day.


Newsletter sign-up

Weekly statistics, charts and insights to help you stay on top of the space industry.